When you browse on this site, cookies collect data to enhance your experience and personalize the content and advertising you see.
Visit our Privacy Policy to learn more. By continuing to use the site, you agree to this use of cookies and data.
  • In Czech Republic
  • List of Countries
  • For 7 days
  • Water Temperature
  • Satellite Maps
  • Weather Map
  • Weather Widgets
  • user-avatar
    Login

    Hourly Weather Melbourne

    Today, 23 March, Saturday

    Time Temperature Precipitation Wind Pressure Humidity
    00:00 +25°C° 0 mm 4 mps 757 mmHg 59%
    01:00 +25°C° 0 mm 4 mps 756 mmHg 58%
    02:00 +25°C° 0 mm 4 mps 756 mmHg 56%
    03:00 +25°C° 0 mm 5 mps 756 mmHg 55%
    04:00 +24°C° 0 mm 6 mps 755 mmHg 54%
    05:00 +24°C° 0 mm 6 mps 755 mmHg 53%
    06:00 +24°C° 0 mm 6 mps 755 mmHg 53%
    07:00 +24°C° 0 mm 6 mps 755 mmHg 52%
    08:00 +26°C° 0 mm 6 mps 755 mmHg 50%
    09:00 +26°C° 0 mm 7 mps 755 mmHg 48%
    10:00 +27°C° 0 mm 7 mps 754 mmHg 46%
    11:00 +29°C° 0 mm 7 mps 754 mmHg 42%
    12:00 +32°C° 0 mm 7 mps 753 mmHg 37%
    13:00 +34°C° 0 mm 6 mps 753 mmHg 32%
    14:00 +34°C° 0 mm 5 mps 753 mmHg 32%
    15:00 +34°C° 0 mm 4 mps 752 mmHg 32%
    16:00 +34°C° 0 mm 3 mps 752 mmHg 31%
    17:00 +30°C° 0 mm 3 mps 753 mmHg 43%
    18:00 +27°C° 0 mm 4 mps 753 mmHg 54%
    19:00 +25°C° 0 mm 5 mps 754 mmHg 66%
    20:00 +23°C° 0 mm 4 mps 754 mmHg 69%
    21:00 +22°C° 0 mm 3 mps 755 mmHg 72%
    22:00 +22°C° 0 mm 1 mps 756 mmHg 75%
    23:00 +22°C° 0 mm 1 mps 756 mmHg 75%

    Tomorrow, 24 March, Sunday

    Time Temperature Precipitation Wind Pressure Humidity
    00:00 +22°C° 0 mm 1 mps 756 mmHg 76%
    01:00 +19°C° 0 mm 0 mps 756 mmHg 76%
    02:00 +19°C° 0 mm 0 mps 756 mmHg 77%
    03:00 +19°C° 0 mm 0 mps 756 mmHg 77%
    04:00 +19°C° 0 mm 0 mps 756 mmHg 78%
    05:00 +20°C° 0 mm 1 mps 756 mmHg 79%
    06:00 +20°C° 0 mm 1 mps 756 mmHg 80%
    07:00 +20°C° 0 mm 1 mps 756 mmHg 81%
    08:00 +22°C° 0 mm 1 mps 756 mmHg 70%
    09:00 +24°C° 0 mm 2 mps 756 mmHg 60%
    10:00 +26°C° 0 mm 3 mps 756 mmHg 50%
    11:00 +28°C° 0 mm 4 mps 755 mmHg 45%
    12:00 +29°C° 0 mm 4 mps 754 mmHg 40%
    13:00 +32°C° 0 mm 5 mps 754 mmHg 34%
    14:00 +30°C° 0 mm 5 mps 753 mmHg 35%
    15:00 +30°C° 0 mm 6 mps 752 mmHg 36%
    16:00 +30°C° 0 mm 6 mps 751 mmHg 37%
    17:00 +29°C° 0 mm 7 mps 751 mmHg 41%
    18:00 +28°C° 0 mm 7 mps 751 mmHg 45%
    19:00 +27°C° 0 mm 7 mps 751 mmHg 50%
    20:00 +27°C° 0 mm 7 mps 751 mmHg 54%
    21:00 +26°C° 0 mm 7 mps 751 mmHg 58%
    22:00 +26°C° 0 mm 7 mps 751 mmHg 63%
    23:00 +24°C° 0.3 mm 7 mps 750 mmHg 63%

    Day after tomorrow, 25 March, Monday

    Time Temperature Precipitation Wind Pressure Humidity
    00:00 +24°C° 0.3 mm 7 mps 750 mmHg 64%
    01:00 +24°C° 0.3 mm 7 mps 749 mmHg 65%
    02:00 +23°C° 1 mm 7 mps 749 mmHg 63%
    03:00 +23°C° 1 mm 7 mps 749 mmHg 61%
    04:00 +22°C° 1 mm 8 mps 749 mmHg 58%
    05:00 +21°C° 0 mm 7 mps 750 mmHg 57%
    06:00 +20°C° 0 mm 7 mps 751 mmHg 56%
    07:00 +18°C° 0 mm 7 mps 752 mmHg 55%
    08:00 +18°C° 0 mm 7 mps 752 mmHg 50%
    09:00 +18°C° 0 mm 8 mps 753 mmHg 45%
    10:00 +18°C° 0 mm 8 mps 754 mmHg 40%
    11:00 +17°C° 0 mm 8 mps 755 mmHg 40%
    12:00 +16°C° 0 mm 8 mps 755 mmHg 39%
    13:00 +16°C° 0 mm 8 mps 756 mmHg 39%
    14:00 +16°C° 0 mm 8 mps 756 mmHg 35%
    15:00 +17°C° 0 mm 7 mps 756 mmHg 31%
    16:00 +17°C° 0 mm 6 mps 756 mmHg 28%
    17:00 +16°C° 0 mm 6 mps 757 mmHg 31%
    18:00 +16°C° 0 mm 6 mps 758 mmHg 33%
    19:00 +15°C° 0 mm 6 mps 758 mmHg 36%
    20:00 +14°C° 0 mm 6 mps 759 mmHg 39%
    21:00 +13°C° 0 mm 6 mps 760 mmHg 41%
    22:00 +13°C° 0 mm 5 mps 761 mmHg 44%
    23:00 +13°C° 0 mm 5 mps 761 mmHg 48%

    26 March, Tuesday

    Time Temperature Precipitation Wind Pressure Humidity
    00:00 +12°C° 0 mm 5 mps 761 mmHg 51%
    01:00 +12°C° 0 mm 5 mps 761 mmHg 55%
    02:00 +12°C° 0 mm 5 mps 762 mmHg 57%
    03:00 +12°C° 0 mm 5 mps 762 mmHg 58%
    04:00 +10°C° 0 mm 5 mps 762 mmHg 59%
    05:00 +12°C° 0 mm 5 mps 763 mmHg 61%
    06:00 +12°C° 0 mm 5 mps 763 mmHg 62%
    07:00 +12°C° 0 mm 5 mps 764 mmHg 63%
    08:00 +13°C° 0 mm 5 mps 764 mmHg 59%
    09:00 +15°C° 0 mm 5 mps 765 mmHg 54%
    10:00 +17°C° 0 mm 5 mps 765 mmHg 49%
    11:00 +19°C° 0 mm 5 mps 765 mmHg 46%
    12:00 +20°C° 0 mm 4 mps 765 mmHg 43%
    13:00 +21°C° 0 mm 4 mps 765 mmHg 40%
    14:00 +21°C° 0 mm 4 mps 765 mmHg 41%
    15:00 +21°C° 0 mm 4 mps 765 mmHg 42%
    16:00 +21°C° 0 mm 3 mps 764 mmHg 43%
    17:00 +20°C° 0 mm 3 mps 765 mmHg 48%
    18:00 +19°C° 0 mm 2 mps 765 mmHg 52%
    19:00 +18°C° 0 mm 2 mps 766 mmHg 57%
    20:00 +19°C° 0 mm 1 mps 766 mmHg 60%
    21:00 +18°C° 0 mm 1 mps 767 mmHg 64%
    22:00 +18°C° 0 mm 1 mps 768 mmHg 68%
    23:00 +16°C° 0 mm 1 mps 768 mmHg 70%

    27 March, Wednesday

    Time Temperature Precipitation Wind Pressure Humidity
    00:00 +16°C° 0 mm 1 mps 767 mmHg 73%
    01:00 +15°C° 0 mm 1 mps 767 mmHg 76%
    02:00 +15°C° 0 mm 1 mps 767 mmHg 78%
    03:00 +14°C° 0 mm 1 mps 767 mmHg 79%
    04:00 +14°C° 0 mm 1 mps 767 mmHg 81%
    05:00 +14°C° 0 mm 1 mps 767 mmHg 82%
    06:00 +14°C° 0 mm 1 mps 768 mmHg 83%
    07:00 +14°C° 0 mm 1 mps 768 mmHg 83%
    08:00 +16°C° 0 mm 1 mps 768 mmHg 74%
    09:00 +17°C° 0 mm 0 mps 768 mmHg 64%
    10:00 +20°C° 0 mm 0 mps 768 mmHg 54%
    11:00 +21°C° 0 mm 0 mps 767 mmHg 48%
    12:00 +25°C° 0 mm 1 mps 767 mmHg 41%
    13:00 +27°C° 0 mm 1 mps 766 mmHg 34%
    14:00 +27°C° 0 mm 1 mps 766 mmHg 33%
    15:00 +27°C° 0 mm 2 mps 765 mmHg 33%
    16:00 +27°C° 0 mm 2 mps 764 mmHg 32%
    17:00 +25°C° 0 mm 2 mps 764 mmHg 38%
    18:00 +22°C° 0 mm 3 mps 765 mmHg 44%
    19:00 +21°C° 0 mm 3 mps 765 mmHg 50%
    20:00 +20°C° 0 mm 2 mps 765 mmHg 55%
    21:00 +19°C° 0 mm 2 mps 765 mmHg 60%
    22:00 +19°C° 0 mm 1 mps 765 mmHg 64%
    23:00 +19°C° 0 mm 1 mps 764 mmHg 64%

    28 March, Thursday

    Time Temperature Precipitation Wind Pressure Humidity
    00:00 +18°C° 0 mm 1 mps 764 mmHg 63%
    01:00 +18°C° 0 mm 1 mps 763 mmHg 63%
    02:00 +18°C° 0 mm 1 mps 763 mmHg 60%
    03:00 +16°C° 0 mm 1 mps 763 mmHg 58%
    04:00 +16°C° 0 mm 1 mps 763 mmHg 55%
    05:00 +17°C° 0 mm 2 mps 763 mmHg 57%
    06:00 +17°C° 0 mm 3 mps 763 mmHg 59%
    07:00 +17°C° 0 mm 4 mps 763 mmHg 61%
    08:00 +19°C° 0 mm 4 mps 763 mmHg 59%
    09:00 +21°C° 0 mm 4 mps 763 mmHg 56%
    10:00 +23°C° 0 mm 4 mps 762 mmHg 53%
    11:00 +25°C° 0 mm 4 mps 762 mmHg 48%
    12:00 +27°C° 0 mm 4 mps 761 mmHg 43%
    13:00 +29°C° 0 mm 4 mps 760 mmHg 38%
    14:00 +29°C° 0 mm 4 mps 760 mmHg 38%
    15:00 +29°C° 0 mm 4 mps 759 mmHg 39%
    16:00 +30°C° 0 mm 4 mps 758 mmHg 39%
    17:00 +28°C° 0.1 mm 3 mps 758 mmHg 46%
    18:00 +27°C° 0.1 mm 3 mps 758 mmHg 52%
    19:00 +25°C° 0.1 mm 2 mps 758 mmHg 58%
    20:00 +24°C° 0.1 mm 2 mps 758 mmHg 63%
    21:00 +23°C° 0.1 mm 2 mps 758 mmHg 68%
    22:00 +21°C° 0.1 mm 2 mps 758 mmHg 73%
    23:00 +20°C° 0 mm 2 mps 757 mmHg 75%
    Show more